Simultaneous Nadir Overpasses (SNOs) Predictions

Prediction of SNOs between AQUA and NPP Satellite Orbit:

Table of predicted SNOs for the next 14.0 days since TLE Epoch: 3/9/2019
Index Date (AQUA) Time (AQUA) Lat,Lon (AQUA) SZA (AQUA ) Date (NPP) Time (NPP) Lat,Lon (NPP) SZA (NPP ) Distance(km) Time Diff (sec)
1 03/11/2019 14:05:33 -75.77, 27.10 78.45 03/11/2019 14:04:38 -75.77, 27.08 78.40 0.42 55
2 03/11/2019 14:54:39 76.69,-162.30 100.47 03/11/2019 14:55:02 76.69,-162.36 100.47 1.88 23
3 03/14/2019 06:21:56 -76.14, 144.10 79.94 03/14/2019 06:21:24 -76.14, 144.11 79.92 0.33 32
4 03/14/2019 07:11:03 77.00, -45.31 99.03 03/14/2019 07:11:49 77.00, -45.36 99.01 1.33 46
5 03/16/2019 22:38:16 -76.64, -98.37 81.60 03/16/2019 22:38:07 -76.65, -98.27 81.62 2.86 9
6 03/16/2019 23:27:26 77.34, 71.89 97.54 03/16/2019 23:28:35 77.35, 71.93 97.48 1.06 69
7 03/19/2019 14:05:40 75.58,-153.48 98.57 03/19/2019 14:04:39 75.57,-153.54 98.64 1.98 61
8 03/19/2019 14:54:42 -76.84, 18.21 82.92 03/19/2019 14:54:57 -76.84, 18.27 82.94 1.40 15
9 03/22/2019 06:22:02 75.93, -36.55 97.09 03/22/2019 06:21:25 75.92, -36.63 97.14 2.47 37




NCC Satellite Simultaneous Nadir Overpasses (SNOs) Prediction Service
